Weather History for Tunica, MS

Change the Weather History Date:

Wednesday, January 9, 2013

  Actual Average (KMEM) Record (KMEM)
Temperature  
Mean Temperature 52 °F 41 °F  
Max Temperature 55 °F 49 °F 74 °F (1949)
Min Temperature 50 °F 32 °F -8 °F (1886)
Degree Days  
Heating Degree Days 12 24  
Month to date heating degree days 216  
Since 1 July heating degree days 1380  
Cooling Degree Days 0 0  
Month to date cooling degree days 0  
Year to date cooling degree days 0  
Growing Degree Days 2 (Base 50)    
Moisture  
Dew Point 51 °F    
Average Humidity 95    
Maximum Humidity 100    
Minimum Humidity 72    
Precipitation  
Precipitation 0.86 in 0.12 in 3.48 in (1965)
Month to date precipitation 1.23  
Year to date precipitation 1.23  
Snow  
Snow 0.00 in 0.10 in 6.80 in (1905)
Month to date snowfall 0.5  
Since 1 July snowfall 0.7  
Snow Depth -    
Sea Level Pressure  
Sea Level Pressure 30.28 in    
Wind  
Wind Speed 6 mph (NE)    
Max Wind Speed 12 mph    
Max Gust Speed 16 mph    
Visibility 6 miles    
Events Rain    
T = Trace of Precipitation, MM = Missing Value Source: NWS Daily Summary

Daily Weather History Graph

Daily Weather History Graph

Search for Another Location

Airport:

Trip Planner

Search our weather history database for the weather conditions in past years. The results will help you decide how hot, cold, wet, or windy it might be!

Date:

Astronomy

Jan. 09, 2013 Rise Set
Actual Time 7:09 AM CST 5:08 PM CST
Civil Twilight 6:41 AM CST 5:36 PM CST
Nautical Twilight 6:10 AM CST 6:07 PM CST
Astronomical Twilight 5:39 AM CST 6:37 PM CST
Moon 4:48 AM CST (1/9) 3:10 PM CST (1/9)
Length of Visible Light 10h 54m
Length of Day
9h 59m
Waning Crescent, 6% of the Moon is Illuminated
Jan 9
Waning Crescent
Jan 11
New
Jan 18
First Quarter
Jan 26
Full
Feb 3
Last Quarter

Hourly Weather History & Observations

Time (CST) Temp. Dew Point Humidity Pressure Visibility Wind Dir Wind Speed Gust Speed Precip Events Conditions
12:15 AM 53.6 °F 44.6 °F 72% 30.22 in 10.0 mi SE 6.9 mph - N/A   Mostly Cloudy
12:35 AM 53.6 °F 44.6 °F 72% 30.22 in 10.0 mi ESE 4.6 mph - N/A Rain Light Rain
12:55 AM 53.6 °F 44.6 °F 72% 30.22 in 10.0 mi Calm Calm - N/A   Overcast
1:15 AM 53.6 °F 44.6 °F 72% 30.23 in 10.0 mi East 3.5 mph - N/A Rain Rain
1:35 AM 51.8 °F 46.4 °F 82% 30.23 in 10.0 mi East 3.5 mph - N/A Rain Rain
1:55 AM 51.8 °F 46.4 °F 82% 30.23 in 10.0 mi East 3.5 mph - N/A Rain Rain
2:15 AM 51.8 °F 46.4 °F 82% 30.23 in 10.0 mi East 4.6 mph - 0.01 in   Drizzle
2:35 AM 51.8 °F 48.2 °F 88% 30.22 in 10.0 mi East 4.6 mph - 0.02 in Rain Rain
2:55 AM 51.8 °F 48.2 °F 88% 30.23 in 10.0 mi East 4.6 mph - 0.03 in   Drizzle
3:15 AM 51.8 °F 48.2 °F 88% 30.23 in 7.0 mi Calm Calm - 0.01 in Rain Rain
3:35 AM 50.0 °F 48.2 °F 94% 30.25 in 7.0 mi Calm Calm - 0.03 in Rain Rain
3:55 AM 50.0 °F 48.2 °F 94% 30.25 in 7.0 mi Calm Calm - 0.05 in Rain Rain
4:15 AM 50.0 °F 50.0 °F 100% 30.24 in 7.0 mi East 4.6 mph - 0.01 in Rain Rain
4:35 AM 50.0 °F 48.2 °F 94% 30.24 in 5.0 mi NE 3.5 mph - 0.01 in   Drizzle
4:55 AM 50.0 °F 48.2 °F 94% 30.24 in 5.0 mi NNE 4.6 mph - 0.01 in Rain Light Rain
5:15 AM 50.0 °F 50.0 °F 100% 30.25 in 5.0 mi North 5.8 mph - N/A Rain Light Rain
5:35 AM 50.0 °F 50.0 °F 100% 30.26 in 4.0 mi North 5.8 mph - N/A   Drizzle
5:55 AM 50.0 °F 50.0 °F 100% 30.26 in 4.0 mi North 5.8 mph - 0.01 in Rain Light Rain
6:15 AM 50.0 °F 50.0 °F 100% 30.27 in 3.0 mi North 5.8 mph - N/A Rain Light Rain
6:35 AM 50.0 °F 50.0 °F 100% 30.28 in 2.0 mi North 5.8 mph - N/A   Drizzle
6:55 AM 50.0 °F 50.0 °F 100% 30.28 in 2.0 mi NNE 5.8 mph - N/A   Light Drizzle
7:15 AM 50.0 °F 50.0 °F 100% 30.30 in 2.5 mi NE 3.5 mph - N/A Rain Rain
7:35 AM 50.0 °F 50.0 °F 100% 30.31 in 1.5 mi NE 3.5 mph - N/A   Overcast
7:55 AM 50.0 °F 50.0 °F 100% 30.33 in 1.2 mi NE 3.5 mph - N/A Rain Light Rain
8:15 AM 50.0 °F 50.0 °F 100% 30.32 in 1.2 mi NE 4.6 mph - N/A   Light Drizzle
8:35 AM 51.8 °F 50.0 °F 94% 30.33 in 1.5 mi NNE 6.9 mph - 0.01 in   Light Drizzle
8:55 AM 51.8 °F 50.0 °F 94% 30.34 in 1.8 mi North 8.1 mph - 0.01 in   Overcast
9:15 AM 51.8 °F 50.0 °F 94% 30.34 in 2.0 mi North 10.4 mph - N/A   Overcast
9:35 AM 51.8 °F 50.0 °F 94% 30.35 in 2.5 mi North 10.4 mph - N/A   Overcast
9:55 AM 51.8 °F 51.8 °F 100% 30.35 in 2.5 mi North 9.2 mph - N/A   Overcast
10:15 AM 51.8 °F 51.8 °F 100% 30.35 in 2.5 mi NNE 10.4 mph - N/A   Overcast
10:35 AM 51.8 °F 51.8 °F 100% 30.35 in 1.8 mi North 11.5 mph - N/A   Drizzle
10:55 AM 51.8 °F 51.8 °F 100% 30.34 in 2.5 mi North 10.4 mph - N/A Rain Light Rain
11:15 AM 51.8 °F 51.8 °F 100% 30.34 in 2.5 mi North 11.5 mph - N/A   Overcast
11:35 AM 53.6 °F 51.8 °F 94% 30.32 in 2.5 mi NNE 10.4 mph - N/A   Overcast
11:55 AM 53.6 °F 51.8 °F 94% 30.32 in 4.0 mi NNE 9.2 mph - N/A   Overcast
12:15 PM 53.6 °F 51.8 °F 94% 30.31 in 4.0 mi NE 8.1 mph - N/A   Overcast
12:35 PM 53.6 °F 53.6 °F 100% 30.30 in 7.0 mi ENE 11.5 mph - N/A   Overcast
12:55 PM 55.4 °F 53.6 °F 94% 30.30 in 7.0 mi ENE 10.4 mph - N/A   Overcast
1:15 PM 55.4 °F 53.6 °F 94% 30.28 in 10.0 mi ENE 11.5 mph 16.1 mph N/A   Overcast
1:35 PM 55.4 °F 53.6 °F 94% 30.28 in 7.0 mi ENE 9.2 mph - N/A   Overcast
1:55 PM 55.4 °F 53.6 °F 94% 30.27 in 2.5 mi ENE 10.4 mph - 0.01 in Rain Rain
2:15 PM 55.4 °F 53.6 °F 94% 30.26 in 3.0 mi ENE 10.4 mph - N/A   Light Drizzle
2:35 PM 55.4 °F 53.6 °F 94% 30.27 in 2.5 mi ENE 9.2 mph - N/A Rain Rain
2:55 PM 55.4 °F 53.6 °F 94% 30.26 in 3.0 mi NE 9.2 mph - 0.01 in   Overcast
3:15 PM 55.4 °F 53.6 °F 94% 30.26 in 4.0 mi NE 10.4 mph - N/A   Light Drizzle
3:35 PM 55.4 °F 53.6 °F 94% 30.27 in 5.0 mi NE 8.1 mph - N/A   Overcast
3:55 PM 55.4 °F 53.6 °F 94% 30.27 in 5.0 mi NE 10.4 mph - N/A Rain Light Rain
4:15 PM 55.4 °F 53.6 °F 94% 30.27 in 7.0 mi NE 10.4 mph - N/A   Overcast
4:35 PM 55.4 °F 53.6 °F 94% 30.28 in 5.0 mi NE 10.4 mph - N/A   Light Drizzle
4:55 PM 55.4 °F 53.6 °F 94% 30.28 in 7.0 mi NE 10.4 mph - N/A   Drizzle
5:15 PM 55.4 °F 53.6 °F 94% 30.29 in 5.0 mi NE 10.4 mph - 0.01 in Rain Light Rain
5:35 PM 55.4 °F 53.6 °F 94% 30.29 in 5.0 mi NE 9.2 mph - 0.03 in Rain Light Rain
5:55 PM 55.4 °F 53.6 °F 94% 30.29 in 4.0 mi NNE 9.2 mph - 0.05 in Rain Rain
6:15 PM 53.6 °F 53.6 °F 100% 30.29 in 7.0 mi NE 10.4 mph - 0.02 in Rain Rain
6:35 PM 53.6 °F 53.6 °F 100% 30.28 in 7.0 mi NE 11.5 mph - 0.06 in Rain Light Rain
6:55 PM 53.6 °F 53.6 °F 100% 30.28 in 10.0 mi NE 11.5 mph - 0.07 in Rain Light Rain
7:15 PM 53.6 °F 53.6 °F 100% 30.28 in 10.0 mi NE 9.2 mph - 0.01 in   Drizzle
7:35 PM 53.6 °F 53.6 °F 100% 30.29 in 7.0 mi ENE 9.2 mph - 0.02 in Rain Rain
7:55 PM 53.6 °F 53.6 °F 100% 30.29 in 7.0 mi NE 8.1 mph - 0.05 in Rain Light Rain
8:15 PM 53.6 °F 53.6 °F 100% 30.29 in 7.0 mi NE 9.2 mph - 0.01 in Rain Rain
8:35 PM 53.6 °F 53.6 °F 100% 30.29 in 5.0 mi ENE 9.2 mph - 0.07 in Rain Rain
8:55 PM 55.4 °F 53.6 °F 94% 30.31 in 4.0 mi East 4.6 mph - 0.17 in Rain Heavy Rain
9:15 PM 53.6 °F 53.6 °F 100% 30.31 in 4.0 mi ENE 5.8 mph - 0.08 in Rain Heavy Rain
9:35 PM 53.6 °F 53.6 °F 100% 30.30 in 4.0 mi NE 8.1 mph - 0.17 in Rain Heavy Rain
9:55 PM 53.6 °F 53.6 °F 100% 30.30 in 4.0 mi ENE 10.4 mph - 0.29 in Rain Rain
10:15 PM 53.6 °F 53.6 °F 100% 30.28 in 5.0 mi NE 9.2 mph - 0.06 in Rain Heavy Rain
10:35 PM 53.6 °F 53.6 °F 100% 30.28 in 10.0 mi NE 8.1 mph - 0.07 in Rain Rain
10:55 PM 53.6 °F 53.6 °F 100% 30.30 in 7.0 mi ENE 6.9 mph - 0.09 in Rain Light Rain
11:15 PM 53.6 °F 53.6 °F 100% 30.28 in 10.0 mi ENE 8.1 mph - 0.01 in Rain Light Rain
11:35 PM 53.6 °F 53.6 °F 100% 30.28 in 10.0 mi ENE 8.1 mph - 0.01 in   Overcast
11:55 PM 55.4 °F 53.6 °F 94% 30.27 in 10.0 mi ENE 8.1 mph - 0.01 in   Overcast